User: anonymous   Login
Location: Unspecified
(0.0000°N, 0.0000°E)
Time: 19:44:27
(UTC+00:00)
Language:

Altair - Orbit

View from above orbital plane
View from above orbital plane
View from above satellite
View from above satellite

Ground track
Ground track

The orbit data is extracted from the following two-line orbital elements,

1 00050U 60009B   21212.58124387 -.00000110  00000-0 -22393-3 0  9992
2 00050  47.2316 291.4763 0113316 105.2800 256.0547 12.20116223720179
Epoch (UTC): 31 July 2021 13:56:59
Eccentricity: 0.0113316
inclination: 47.2316°
perigee height: 1502 km
apogee height: 1682 km
right ascension of ascending node: 291.4763°
argument of perigee: 105.2800°
revolutions per day: 12.20116223
mean anomaly at epoch: 256.0547°
orbit number at epoch: 72017

The dashed part of the orbit path shows where the satellite is in the earth's shadow,  

DLR